This is the latest recevied weather packets stored in our database for station/object N7WSS. If no packets are shown the sender has not sent any weather packets the latest 10 day(s).
| Time | Temp. | Humidity | Pressure | Rain* | Wind** | Luminosity | Snow |
|---|---|---|---|---|---|---|---|
| 1787742535 | 25° C | 43% | 1012.3 hPa | 0 mm | - | - | - |
| 1787742231 | 25° C | 43% | 1012.3 hPa | 0 mm | - | - | - |
| 1787741927 | 25° C | 43% | 1012.5 hPa | 0 mm | - | - | - |
| 1787741622 | 25.56° C | 42% | 1012.4 hPa | 0 mm | - | - | - |
| 1787741318 | 25.56° C | 42% | 1012.4 hPa | 0 mm | - | - | - |
| 1787741011 | 25.56° C | 42% | 1012.4 hPa | 0 mm | - | - | - |
| 1787740706 | 25° C | 43% | 1012.4 hPa | 0 mm | - | - | - |
| 1787740400 | 25° C | 43% | 1012.4 hPa | 0 mm | - | - | - |
| 1787740100 | 25° C | 43% | 1012.7 hPa | 0 mm | - | - | - |
| 1787739796 | 25.56° C | 43% | 1012.5 hPa | 0 mm | - | - | - |
| 1787739493 | 25.56° C | 42% | 1012.4 hPa | 0 mm | - | - | - |
| 1787739192 | 25.56° C | 42% | 1012.5 hPa | 0 mm | - | - | - |
| 1787738889 | 25.56° C | 43% | 1012.3 hPa | 0 mm | - | - | - |
| 1787738585 | 25.56° C | 42% | 1012.4 hPa | 0 mm | - | - | - |
| 1787738283 | 25.56° C | 42% | 1012.3 hPa | 0 mm | - | - | - |
| 1787737978 | 25.56° C | 41% | 1012.1 hPa | 0 mm | - | - | - |
| 1787737674 | 26.11° C | 41% | 1012.4 hPa | 0 mm | - | - | - |
| 1787737372 | 26.11° C | 41% | 1012.3 hPa | 0 mm | - | - | - |
| 1787737068 | 25.56° C | 41% | 1012.5 hPa | 0 mm | - | - | - |
| 1787736764 | 25.56° C | 42% | 1012.4 hPa | 0 mm | - | - | - |
| 1787736460 | 25.56° C | 42% | 1012.6 hPa | 0 mm | - | - | - |
| 1787736158 | 26.11° C | 42% | 1012.4 hPa | 0 mm | - | - | - |
| 1787735857 | 26.11° C | 42% | 1012.3 hPa | 0 mm | - | - | - |
| 1787735552 | 26.11° C | 41% | 1012.5 hPa | 0 mm | - | - | - |
| 1787735247 | 26.67° C | 41% | 1012.4 hPa | 0 mm | - | - | - |
* Rain latest hour (hover to see other rain measurements)
** Current wind speed in m/s (hover to see current wind gust speed)